Zurück zum Katalog

MENUT

AktivWissenschaftSSO
NORAD 55010·PAYLOAD·🇪🇸 Spain

Gestartet Jan 3, 2023 von Cape Canaveral Space Force Station

Loading…

Nächste Überflüge (nächste 24 Stunden)

TLE

AktuellSource: Space-Track

Epoche: Sep 14, 2026, 15:42 UTC

1 55010U 23001B   26257.65457189  .00133220  00000-0  82285-3 0  9993
2 55010  97.2989 329.2249 0003370 162.6043 197.5339 15.76732299206414

Verfolge MENUT in Echtzeit mit AllMySat

Download on the App Store